GFSWCAN_850_thetae_327.txt.gz
Theta_e
298 298 299 300 299 299 299 299 300 299 299 300 300 300 301 301 301 301 302 303 306 311 311 312 313 314 315 314 314 311 311 310 305 310 312 309 309 310 311 308 308 309 310 310 307 312 315 309 310 315 315 316 317 317
298 298 299 300 299 299 299 299 300 299 299 299 299 300 301 301 301 301 302 302 304 305 310 309 310 313 314 315 314 312 313 311 311 310 308 308 309 306 311 313 305 312 311 314 312 313 312 311 315 316 318 318 319 320
297 298 299 298 298 298 299 299 299 299 299 299 299 300 301 301 301 301 301 302 306 307 308 309 309 311 312 314 314 315 313 312 311 312 308 308 310 309 310 313 309 306 306 310 311 309 309 313 315 316 317 317 319 320
296 297 298 298 298 298 298 298 298 298 299 298 299 300 300 300 300 300 301 302 304 307 307 307 308 309 311 313 313 313 314 313 311 311 309 307 310 311 313 312 313 309 308 308 308 309 311 312 314 317 317 316 316 317
296 296 296 297 297 298 298 298 298 298 298 298 299 300 300 300 300 301 301 303 304 306 303 305 307 309 309 311 313 314 312 311 310 311 309 310 307 309 305 307 311 308 308 313 314 312 315 316 317 317 316 317 317 316
297 297 296 296 297 297 297 297 297 298 298 298 298 299 300 300 300 301 303 304 305 307 308 305 307 308 309 310 311 312 313 312 311 311 310 312 313 311 309 313 312 313 313 314 314 315 316 316 317 317 317 318 318 317
296 297 297 297 297 297 297 297 297 298 298 298 298 299 299 300 301 303 304 306 306 306 308 303 305 308 308 309 309 310 311 310 310 310 310 311 311 311 303 314 312 314 315 315 315 315 314 315 316 317 317 317 318 318
296 296 297 297 297 298 298 297 298 298 298 298 298 299 299 301 301 302 304 303 306 308 308 303 303 304 305 306 308 309 309 309 308 310 307 307 309 308 307 312 314 315 315 315 315 315 315 315 316 316 316 317 318 318
296 297 296 297 298 298 298 297 298 297 298 298 299 299 301 301 302 301 302 303 303 308 304 301 305 306 305 306 308 307 309 308 308 309 309 307 308 310 310 313 313 314 314 315 315 316 314 314 315 316 316 317 318 318
296 297 297 297 297 297 298 298 297 298 298 299 299 302 301 302 303 303 305 306 305 300 301 302 304 304 303 303 303 305 306 306 306 306 308 309 310 310 312 314 315 314 315 315 315 314 313 313 314 315 316 317 318 318
297 296 297 296 297 297 296 296 298 299 300 300 299 300 301 303 305 304 300 300 299 298 299 303 305 303 302 304 305 306 304 303 307 306 309 308 308 311 311 311 311 314 314 315 316 316 316 316 316 317 317 318 318 318
297 297 298 298 298 297 297 298 298 300 300 300 299 300 301 302 300 300 300 299 301 302 299 304 304 304 304 305 304 303 305 303 308 303 307 309 310 311 311 311 311 311 312 314 316 316 315 316 316 316 317 317 318 318
297 297 297 297 297 298 298 298 298 299 300 300 299 299 298 299 301 301 302 300 302 300 299 304 306 306 305 306 303 304 306 306 304 306 308 305 310 310 310 310 310 311 311 311 313 315 316 316 316 316 316 317 316 315
297 297 297 297 298 299 299 298 298 300 300 298 297 299 301 300 300 300 296 296 300 300 302 306 305 306 304 304 302 306 305 304 307 309 307 308 306 308 309 309 309 309 309 310 310 311 313 314 315 316 316 314 313 313
298 298 298 299 299 298 299 299 300 300 299 298 299 302 300 300 299 299 299 300 301 302 305 305 304 303 302 304 303 303 303 306 305 305 302 303 306 308 309 309 309 309 308 308 309 310 311 313 313 312 312 311 311 311
298 298 298 298 298 299 299 299 300 300 300 298 298 299 299 298 299 300 299 300 301 304 306 306 303 304 305 304 303 305 306 304 302 301 303 304 304 305 306 307 308 308 307 307 308 309 309 309 310 310 310 310 310 309
298 298 298 299 300 300 299 299 299 298 297 299 298 298 298 299 299 299 300 300 303 305 304 302 306 307 302 305 305 301 305 302 301 301 301 302 303 303 304 305 306 307 307 306 307 307 308 308 308 307 305 302 302 301
299 300 300 301 300 299 299 297 298 298 296 297 298 297 297 298 300 301 301 301 301 301 301 303 301 302 304 304 303 301 300 298 298 298 300 300 301 301 302 303 303 305 305 305 305 304 303 301 301 300 300 299 299 298
299 299 299 300 300 298 297 296 297 295 296 297 297 298 298 298 299 300 301 302 302 301 302 300 303 303 302 301 301 299 299 298 297 297 298 299 300 300 300 301 301 301 301 300 299 299 298 298 298 297 297 297 297 296
300 300 299 299 298 297 295 296 297 297 295 296 297 296 297 297 298 299 299 300 300 300 300 301 301 299 300 300 299 298 298 298 298 298 297 298 299 300 299 299 299 299 299 299 298 298 298 297 297 297 297 296 296 295
299 298 297 297 296 295 294 295 295 296 297 296 297 297 298 298 298 297 298 299 298 296 298 297 297 299 300 300 300 300 300 300 298 298 298 298 299 299 300 300 300 300 300 299 298 297 297 297 296 296 296 295 295 295
298 298 297 297 295 295 295 295 295 296 296 296 296 297 295 294 296 297 297 296 295 294 294 295 297 298 300 300 300 300 300 300 300 300 300 300 300 300 300 299 300 299 298 297 297 297 296 295 295 295 294 294 293 293
297 297 296 295 294 294 293 294 295 295 292 294 294 293 290 292 296 297 294 294 292 292 295 295 297 299 297 298 299 300 300 300 299 299 299 299 298 298 298 298 297 297 296 295 295 294 294 293 292 292 292 292 291 291
297 295 293 290 291 285 293 293 295 291 289 285 284 290 289 293 295 291 294 293 291 293 296 296 298 299 299 300 298 298 298 298 298 297 297 298 297 296 296 295 295 294 294 293 293 292 292 292 291 291 291 291 291 290
294 286 289 286 286 287 293 293 293 289 290 286 290 291 290 293 288 291 293 291 290 290 292 296 297 298 296 295 295 295 296 297 298 297 295 296 296 295 294 293 293 292 291 291 291 291 291 290 290 290 289 288 287 287
285 283 284 287 285 285 290 292 293 291 290 293 292 292 293 294 293 291 290 288 288 288 290 292 293 294 293 293 294 294 294 295 296 296 293 293 293 293 292 292 291 290 289 289 289 289 288 287 287 286 286 286 286 286
285 281 285 286 287 287 287 289 289 289 292 292 292 292 292 292 290 289 287 287 287 288 290 291 292 292 291 292 292 292 292 293 293 292 291 291 291 290 290 290 289 288 288 288 287 287 286 286 286 286 285 285 285 285
285 286 286 285 286 286 283 287 291 291 290 289 290 288 286 288 287 285 286 286 287 289 290 290 290 291 291 290 290 290 290 290 289 289 289 289 288 288 288 287 287 286 286 286 285 285 285 285 285 285 285 285 285 284
286 287 286 278 280 283 283 287 289 288 288 288 285 284 284 283 283 285 286 287 287 288 288 288 288 288 288 288 288 288 288 288 288 288 288 286 285 285 285 284 284 284 284 284 284 284 284 284 285 285 284 284 284 284
285 286 282 278 279 283 286 286 286 285 285 284 283 283 282 282 283 285 286 286 287 287 287 287 286 287 286 287 286 285 285 285 285 285 285 284 284 284 284 284 284 284 284 284 284 284 284 284 283 283 283 283 283 282
287 287 284 284 282 286 286 286 286 285 285 284 284 283 283 283 283 284 285 285 285 286 286 286 286 286 286 286 286 286 284 284 284 284 284 284 284 284 284 283 283 283 283 283 283 283 282 282 282 282 281 281 281 280
286 285 282 281 284 287 288 288 287 286 286 286 285 285 284 283 282 283 283 284 284 285 284 284 284 284 284 284 284 284 283 283 283 284 284 283 283 282 282 282 282 282 282 282 281 281 281 280 280 280 280 280 279 279
287 286 286 287 285 285 286 286 285 284 284 284 284 284 283 283 282 282 282 282 283 283 284 284 284 284 284 284 283 283 283 283 282 282 281 281 281 281 281 281 280 280 280 280 280 279 279 279 279 279 279 279 279 279

GFSWCAN_850_thetae_330.txt.gz
Theta_e
298 297 298 299 298 299 299 299 299 300 299 299 299 299 300 300 300 301 302 302 303 304 304 307 309 310 314 313 314 313 313 311 309 315 317 316 316 316 315 315 315 316 319 319 319 321 320 313 313 318 320 318 317 318
297 298 298 298 298 299 299 299 299 299 298 299 299 299 299 299 299 301 302 302 302 303 303 306 306 307 311 312 314 314 315 313 313 313 315 315 316 315 317 317 312 316 317 319 318 318 317 314 317 316 316 319 319 319
297 297 297 298 298 299 299 299 299 298 298 299 299 299 298 299 299 300 302 302 303 304 303 303 304 305 307 312 312 313 313 314 312 312 314 316 316 316 316 317 316 313 314 317 317 317 315 314 316 316 317 317 317 318
297 296 296 296 298 299 298 298 298 298 299 299 298 298 299 299 299 300 301 302 302 303 304 304 306 306 304 308 309 312 313 314 313 311 312 315 316 314 316 316 317 317 313 315 317 317 314 314 314 316 317 317 316 316
295 296 297 295 296 297 297 298 298 298 298 298 298 298 298 298 299 300 301 301 301 302 303 303 304 306 308 309 309 309 311 312 313 311 312 313 313 314 314 315 315 315 315 316 317 316 316 316 316 316 316 316 317 316
296 297 297 297 296 296 297 297 297 298 298 298 298 298 298 298 299 300 302 301 301 301 303 304 304 303 303 307 309 310 311 311 312 312 312 312 313 312 317 316 314 313 314 314 316 315 316 316 316 316 316 316 317 317
296 295 296 297 297 296 296 297 297 297 297 297 297 298 298 298 299 301 301 302 301 301 303 303 305 306 306 306 308 309 311 312 311 311 311 311 313 312 314 316 314 314 314 313 313 314 314 314 315 315 316 316 316 316
296 296 296 296 296 296 296 296 297 297 297 297 297 297 298 298 299 300 300 300 304 304 303 303 304 305 305 308 309 309 310 310 309 312 308 311 312 312 312 313 314 314 314 314 314 314 314 314 315 315 315 316 316 316
295 296 296 297 297 297 297 296 297 297 297 297 297 297 299 299 300 300 301 301 301 302 300 301 307 308 305 308 308 308 309 308 309 309 309 309 312 313 312 313 314 314 314 314 314 313 312 313 314 314 315 315 315 316
296 296 296 297 296 297 297 298 298 297 297 298 298 299 299 300 300 301 302 303 302 303 301 301 302 306 306 306 306 306 307 308 307 307 309 309 311 312 312 313 314 314 314 314 314 314 314 313 312 313 313 314 315 315
296 296 296 296 296 296 297 296 297 297 298 298 299 299 300 302 302 302 303 301 300 299 298 302 303 305 303 309 309 307 306 304 309 311 310 310 312 312 311 312 312 313 313 314 314 314 314 315 314 314 314 315 315 315
296 296 297 297 298 297 297 296 297 297 298 299 299 299 300 300 300 300 303 301 301 305 301 304 304 304 303 305 307 304 306 304 312 308 309 312 312 312 312 312 312 312 312 312 313 314 314 314 314 314 315 315 316 317
297 297 297 297 297 298 298 298 297 297 298 299 299 298 298 298 301 301 302 302 304 303 302 305 305 305 304 305 304 304 307 308 306 309 311 312 313 312 312 312 312 312 312 312 312 312 313 314 315 315 315 315 316 316
297 297 297 297 297 297 298 297 297 299 299 298 297 298 300 302 302 304 303 304 303 303 302 306 306 306 305 305 303 308 307 304 310 310 310 312 312 311 309 309 310 311 311 311 312 312 312 313 313 315 315 315 315 315
297 297 298 297 297 297 297 297 298 300 299 298 298 301 301 302 300 300 300 300 301 301 304 306 304 303 303 305 303 306 307 311 310 311 312 311 308 306 307 309 309 308 309 310 310 310 311 312 312 313 314 314 314 313
298 298 298 297 297 297 298 299 299 300 300 298 297 300 299 300 300 299 299 299 301 303 306 306 304 305 306 306 306 308 308 310 311 308 306 304 303 303 303 306 307 307 307 306 307 309 310 310 310 311 311 311 311 311
298 298 298 298 299 299 299 299 299 299 297 298 299 298 298 299 300 300 300 301 302 305 305 303 307 309 304 308 308 307 308 308 303 302 300 299 300 301 303 304 305 305 305 306 306 306 308 308 309 309 309 307 308 308
298 298 298 298 299 300 300 299 298 297 298 298 299 298 297 298 300 300 300 301 302 301 302 304 302 305 307 308 308 305 302 298 297 297 297 297 298 297 298 298 299 300 301 301 303 303 304 305 305 304 303 302 301 300
298 299 300 299 299 299 297 296 297 297 297 297 297 297 297 298 298 299 300 300 300 300 301 300 304 306 305 303 303 300 299 298 297 296 296 296 296 296 296 296 296 296 297 297 298 298 298 300 300 300 301 302 301 300
298 298 299 299 299 298 296 296 296 297 298 296 297 297 297 297 298 299 299 300 300 300 300 301 301 299 300 299 299 298 298 297 297 297 297 297 297 296 296 296 296 296 296 297 297 298 298 298 298 298 297 296 296 296
298 297 298 298 295 295 294 294 295 296 297 297 296 297 297 297 297 297 297 297 297 296 298 296 296 299 299 299 299 299 298 298 297 297 296 296 297 297 297 297 297 297 297 297 296 296 296 296 295 295 295 295 295 295
296 296 295 295 295 295 295 294 295 296 296 296 296 296 296 297 297 296 296 295 294 293 292 293 295 298 299 298 298 298 298 299 299 299 299 299 299 299 299 299 300 299 298 298 299 298 297 296 295 294 294 293 293 292
296 296 295 295 294 294 294 294 294 293 295 293 294 294 295 296 295 296 296 293 292 291 293 293 294 297 297 298 299 298 299 299 299 298 298 298 298 297 297 297 297 297 296 294 294 294 293 292 292 293 292 292 292 292
295 294 292 290 291 289 293 292 293 289 290 292 292 293 294 294 294 295 294 292 290 290 294 295 295 296 297 298 297 297 297 299 298 297 297 297 297 296 296 295 294 293 293 292 292 291 291 291 291 291 291 291 290 290
293 286 288 286 287 291 293 291 290 292 291 289 293 295 294 292 294 293 293 290 288 289 291 293 295 295 294 294 294 295 296 297 297 296 295 296 295 293 292 292 292 291 290 291 290 290 290 289 289 288 288 287 287 287
287 283 286 288 287 289 292 293 294 292 294 294 293 293 294 294 290 290 289 287 287 287 289 290 291 293 293 293 294 294 294 295 295 294 291 291 291 291 290 290 289 288 288 289 288 288 287 287 287 286 286 286 286 286
288 285 285 286 286 287 290 290 291 292 292 293 293 293 293 292 289 288 287 286 286 287 289 291 292 292 291 291 292 292 292 292 293 292 290 290 290 290 290 289 289 288 287 287 287 287 286 286 286 286 286 285 286 286
284 286 286 285 286 286 289 291 291 291 291 290 290 288 287 288 287 285 285 286 287 288 289 290 290 291 291 290 289 290 289 289 289 289 289 288 288 288 287 287 286 286 285 285 285 285 285 285 285 285 285 285 285 285
284 285 285 280 282 284 286 288 289 287 286 287 287 285 284 282 283 284 285 286 287 288 288 288 287 288 288 288 288 288 287 287 288 288 286 285 285 284 284 284 284 284 284 284 284 284 284 284 284 284 284 283 283 283
284 285 282 281 281 285 286 285 285 284 284 284 283 282 282 282 283 285 285 286 287 287 286 286 286 287 286 286 285 285 285 285 285 285 285 284 284 284 284 284 284 284 284 284 283 283 283 283 283 282 282 282 282 281
286 286 284 284 286 285 285 285 284 284 283 283 283 283 282 283 283 284 285 285 285 286 286 285 285 285 285 284 284 284 284 284 284 284 284 283 283 283 283 283 282 282 282 282 282 282 282 282 282 281 281 281 281 280
286 284 285 284 285 286 287 287 286 285 285 285 285 284 284 283 282 283 283 284 285 285 285 285 285 284 284 283 284 284 283 283 283 283 282 282 282 282 282 282 282 282 281 281 281 281 280 280 280 280 279 279 279 279
286 286 286 286 285 285 286 286 284 284 284 284 284 284 283 283 282 282 282 283 284 284 284 284 284 284 284 283 283 283 283 282 282 282 281 281 281 281 281 281 281 280 280 280 280 280 279 279 279 279 279 278 278 278

GFSWCAN_850_thetae_333.txt.gz
Theta_e
296 297 298 298 298 298 298 298 298 298 298 298 299 298 299 300 300 300 300 301 303 304 303 304 305 305 306 308 312 314 315 315 311 314 317 318 320 320 317 317 317 316 319 320 320 322 322 319 316 319 320 322 320 321
297 297 297 298 297 298 298 298 298 298 297 298 299 299 299 299 300 300 301 301 301 303 303 304 304 304 306 307 307 308 313 314 313 314 316 318 320 320 320 319 317 318 317 319 319 319 319 318 318 317 318 320 321 322
297 297 297 297 298 298 298 298 298 298 298 298 299 298 299 299 300 299 300 300 302 303 303 304 303 303 304 304 306 305 307 311 315 314 316 316 319 320 321 320 318 318 316 318 319 320 319 318 318 318 318 318 318 320
297 298 297 297 298 297 297 297 298 298 298 298 298 298 298 299 299 299 300 300 301 302 302 303 304 304 304 304 304 306 308 306 312 313 312 317 316 316 319 319 320 318 318 317 318 318 318 318 318 318 318 317 317 318
297 296 296 296 296 297 296 297 299 299 298 298 298 298 299 299 299 298 299 299 300 302 302 301 303 304 304 304 304 304 306 307 309 308 312 313 314 316 317 318 317 318 318 318 318 316 317 317 317 317 316 317 317 317
296 295 295 295 296 297 296 296 297 297 298 298 299 299 299 299 299 300 300 299 299 300 303 303 303 303 303 305 307 308 306 308 307 310 311 312 311 314 316 317 316 316 316 316 317 316 316 316 316 316 316 317 317 317
296 295 296 296 296 296 296 296 296 297 297 298 298 298 298 299 299 300 300 302 301 301 302 301 303 303 303 304 305 306 308 309 311 311 311 311 311 313 314 316 315 316 316 316 315 315 315 315 315 315 316 316 316 317
296 296 295 295 295 295 296 296 296 296 297 297 297 297 298 298 298 299 299 300 302 302 302 302 303 305 304 305 307 306 307 309 310 310 310 311 311 312 313 313 313 314 314 315 315 315 315 315 314 314 315 315 315 316
296 295 296 296 296 296 296 296 296 296 296 297 297 297 297 298 299 299 299 299 299 300 300 300 304 304 305 306 306 307 307 309 308 309 310 309 311 313 312 312 313 313 314 315 314 314 315 315 315 315 315 315 316 315
295 295 295 296 296 296 296 296 296 296 296 297 297 298 298 298 298 299 301 301 301 301 300 300 302 304 304 306 307 307 307 308 308 308 308 310 310 310 312 313 313 313 313 314 314 315 315 315 315 315 314 314 315 315
295 295 296 296 295 296 296 296 296 297 298 298 298 298 298 300 300 300 300 301 300 301 299 301 302 305 303 305 304 305 306 306 310 310 310 309 310 311 310 311 312 313 313 314 314 314 315 315 315 315 315 315 315 314
296 296 296 296 295 295 295 296 296 297 297 297 297 298 298 299 299 300 303 301 301 303 304 304 304 304 304 304 306 305 306 305 309 310 309 311 311 311 311 311 311 311 312 313 314 314 314 315 315 315 315 315 315 314
296 296 296 296 296 296 297 298 297 297 297 297 297 298 298 299 301 302 302 304 304 304 305 304 305 305 303 304 305 304 306 309 309 308 310 311 310 311 311 312 312 312 312 313 313 313 313 314 314 315 315 314 315 315
296 295 296 297 297 297 298 298 298 297 297 297 297 300 300 301 302 305 303 304 303 304 305 304 305 306 305 302 302 306 306 305 310 312 310 311 311 312 312 312 313 313 313 313 313 313 313 313 313 313 314 314 314 314
296 297 297 297 297 297 297 298 299 298 297 298 298 299 301 302 303 303 303 303 303 303 305 306 305 305 304 306 303 307 308 310 310 311 310 310 310 308 309 309 309 310 310 310 311 312 313 313 313 313 313 313 314 314
297 297 297 297 297 297 297 298 299 298 297 298 298 300 301 301 302 302 301 301 302 303 304 306 305 305 306 306 307 309 310 310 311 311 308 305 305 305 305 305 305 305 305 306 307 308 311 312 313 313 313 312 312 312
297 298 298 298 297 297 297 298 298 298 298 298 299 299 300 300 301 301 301 300 301 302 304 302 307 308 304 308 308 310 310 309 305 304 302 301 300 300 301 301 302 302 303 305 306 307 308 310 310 310 309 307 308 307
298 298 298 298 298 299 298 298 298 298 298 298 299 300 298 298 299 299 299 300 300 299 300 304 303 306 308 309 309 309 306 303 300 299 299 299 299 299 299 300 300 301 302 303 303 304 305 306 305 304 305 303 304 304
297 298 298 298 297 298 298 298 298 298 298 297 297 297 297 298 298 298 299 299 299 300 300 301 304 307 306 303 303 301 301 300 298 296 297 297 297 297 297 297 298 298 299 300 301 300 300 300 299 299 298 299 299 299
298 298 298 298 299 298 297 296 296 297 299 298 297 297 297 297 297 297 297 298 299 299 300 301 300 299 299 299 299 298 298 297 297 296 295 295 295 295 295 295 295 295 295 295 295 295 296 297 297 299 299 300 301 300
298 299 299 298 299 296 295 295 295 297 297 297 297 297 298 298 297 297 297 297 297 295 298 294 294 297 299 299 299 299 298 298 297 296 296 296 297 297 297 296 296 296 296 296 296 296 297 296 297 297 297 297 296 296
295 296 296 297 296 295 295 294 295 296 297 297 297 297 298 299 298 296 296 295 294 293 292 292 293 295 297 297 297 297 297 297 297 297 297 297 296 296 296 296 296 295 294 294 294 294 293 294 294 295 295 294 294 293
296 297 296 295 294 294 294 294 295 294 298 296 296 298 297 298 296 297 295 293 292 290 291 293 294 295 296 296 297 297 298 298 297 297 297 296 296 296 296 296 296 295 294 293 293 292 291 291 291 291 290 291 291 291
294 293 292 291 293 293 293 294 293 293 293 295 296 296 296 296 296 296 295 292 290 289 291 293 294 294 295 297 295 295 296 297 296 296 295 296 295 293 294 293 292 292 291 291 291 291 290 290 290 290 290 289 289 288
292 287 288 289 290 294 294 294 294 294 293 293 295 296 296 296 296 294 293 290 289 288 289 291 292 292 292 292 293 294 294 295 296 295 293 293 292 291 291 290 290 290 289 290 289 289 288 288 288 288 288 287 287 287
288 284 289 290 290 293 294 294 294 294 294 295 295 295 295 294 292 292 290 287 287 286 288 289 290 290 292 292 292 293 292 293 294 293 291 289 289 289 288 288 288 288 288 288 287 287 287 286 286 286 286 286 286 286
290 288 287 286 288 292 293 292 292 293 293 294 295 294 294 291 290 289 288 286 286 286 288 289 290 290 290 291 292 292 292 292 292 290 290 290 290 289 289 288 287 286 286 286 286 286 286 286 286 286 286 286 286 286
285 287 288 286 289 290 292 292 292 292 292 291 291 288 289 289 289 286 285 285 286 287 288 289 289 290 290 289 289 289 289 288 288 288 288 288 287 287 286 286 285 285 285 285 285 286 286 286 286 285 285 285 285 285
286 286 286 283 286 287 288 290 290 288 286 288 289 287 285 283 282 284 285 285 286 287 287 287 287 288 288 288 288 287 287 285 286 286 286 284 285 285 285 285 285 285 285 285 285 285 284 284 284 284 284 283 283 283
286 285 286 285 285 287 286 286 285 284 284 284 283 283 283 282 284 285 285 286 287 287 287 287 287 287 286 286 285 285 285 285 285 285 284 284 284 284 284 284 284 284 283 283 283 283 283 282 282 282 282 281 281 281
286 287 287 287 287 286 285 285 285 285 285 284 284 284 284 283 284 284 285 285 285 286 286 285 284 283 283 284 284 284 284 284 284 284 283 283 283 282 282 282 282 282 282 282 281 281 281 281 280 280 280 280 280 279
287 286 287 287 287 286 286 287 286 286 286 286 285 285 285 284 284 283 284 284 285 285 285 285 285 284 283 283 284 283 283 282 282 282 282 281 281 281 281 281 281 281 281 281 280 280 280 280 280 279 279 279 278 278
286 287 287 287 287 287 286 286 286 286 285 285 285 285 284 284 284 282 283 284 284 284 284 284 284 283 283 283 282 282 281 281 281 281 281 281 280 280 281 281 281 281 281 281 281 280 280 280 279 279 278 278 278 278

GFSWCAN_850_thetae_336.txt.gz
Theta_e
296 297 297 297 297 297 298 298 299 297 298 298 298 298 298 298 298 299 300 301 301 303 303 303 304 304 304 305 308 307 308 313 316 317 316 317 318 317 317 317 316 314 315 315 315 316 317 318 317 317 318 321 320 320
296 297 297 297 297 297 298 298 297 297 298 298 298 298 298 298 298 298 299 300 301 302 302 302 302 302 304 304 305 307 308 307 308 314 315 315 317 318 318 318 317 315 315 316 315 315 315 317 317 318 318 318 318 320
296 297 297 297 297 297 297 297 297 298 298 298 298 298 298 297 298 299 299 300 301 302 302 303 302 302 302 303 303 306 306 305 305 306 308 314 316 317 318 319 319 318 316 315 315 315 315 318 318 317 318 318 318 318
296 296 297 297 298 298 298 298 298 298 298 298 298 298 298 297 298 298 299 299 300 301 301 302 302 302 302 303 304 304 304 305 305 306 306 305 308 315 317 317 319 319 317 316 315 315 316 317 317 318 318 318 318 318
296 296 297 297 297 298 297 297 297 296 296 298 299 298 298 298 298 299 299 299 300 300 301 301 302 302 302 304 304 304 304 305 306 307 307 305 308 311 312 315 318 317 317 317 317 316 316 316 317 316 316 317 317 317
296 297 296 297 296 295 295 295 295 295 296 298 298 299 299 298 299 299 300 299 300 300 301 302 301 301 301 302 304 305 304 304 305 307 307 306 305 307 310 313 314 315 315 316 316 316 316 316 316 316 316 316 316 317
296 296 296 296 295 295 295 295 296 296 295 297 297 298 298 299 299 300 300 301 300 299 300 300 301 300 300 301 302 304 305 306 306 305 306 306 307 308 309 310 312 314 315 315 315 316 316 316 315 315 315 315 315 315
296 297 296 297 295 295 296 295 295 295 295 296 297 297 298 298 299 299 299 300 301 302 300 301 302 303 302 303 303 304 304 305 306 307 307 307 307 307 308 309 310 311 312 313 314 315 314 315 315 315 315 315 315 314
296 296 296 296 297 296 295 295 296 296 295 295 296 297 298 298 298 298 299 299 299 299 300 299 302 303 303 304 304 305 305 306 305 306 306 307 307 309 309 309 310 311 312 313 313 312 313 313 314 314 315 315 315 315
294 296 296 296 296 296 295 295 295 296 295 295 297 298 297 298 298 298 299 300 299 300 299 300 301 302 302 302 303 303 305 304 303 305 306 307 307 308 308 308 310 311 311 312 312 312 313 313 314 314 314 314 315 315
294 295 295 295 295 295 295 295 295 296 296 297 298 297 298 298 298 298 299 299 299 299 299 300 300 300 301 302 303 303 303 303 306 304 306 304 306 306 307 308 309 310 311 312 312 312 312 313 313 314 314 315 315 315
294 295 295 295 295 295 295 295 296 296 296 297 298 298 298 298 298 300 300 299 299 301 302 301 301 301 302 303 303 303 303 303 302 306 307 309 307 306 306 306 306 307 308 308 308 310 310 312 313 313 314 314 314 315
295 295 295 295 296 295 295 295 295 296 296 297 297 297 298 297 300 299 296 302 302 301 304 303 303 304 303 303 303 303 305 304 304 305 304 304 306 307 308 308 308 308 308 309 309 310 310 311 312 312 313 314 314 314
295 295 295 295 296 296 296 295 295 297 297 297 296 297 298 298 297 299 300 301 301 302 303 304 304 303 303 303 303 306 304 305 306 306 305 305 307 308 308 309 310 310 309 310 310 310 311 312 312 313 313 313 313 314
296 296 297 296 296 295 296 296 298 297 297 296 296 297 297 298 300 302 302 302 302 303 303 303 304 303 303 303 303 303 306 304 304 307 306 306 306 306 306 307 307 309 309 310 311 311 311 312 312 313 313 313 313 313
296 296 295 295 296 297 297 297 298 297 297 296 296 297 299 301 300 301 301 302 301 301 301 302 303 304 305 305 306 304 305 306 305 306 304 302 301 301 302 302 303 304 304 305 306 307 308 309 309 310 312 313 313 313
296 298 297 297 297 297 298 298 298 297 297 296 297 297 298 299 300 300 301 302 301 301 300 301 302 303 304 306 307 304 305 306 303 302 301 300 300 300 300 301 301 302 303 303 304 305 306 307 307 310 312 312 312 312
298 297 296 297 298 297 298 298 298 297 297 296 298 298 299 298 298 299 300 300 300 301 300 301 302 304 305 305 305 305 304 302 301 299 298 299 299 298 298 299 300 301 302 303 303 304 305 306 307 306 306 307 308 307
296 297 298 298 298 298 297 297 297 297 297 298 298 298 298 298 299 298 298 298 299 300 300 299 302 305 305 302 302 300 299 299 298 296 296 296 296 296 296 296 296 296 298 299 299 298 299 299 299 299 299 301 300 299
297 298 298 298 297 297 297 297 297 297 298 298 296 297 297 297 297 297 297 296 296 297 299 300 298 297 298 298 299 299 297 297 296 296 295 294 295 295 295 294 294 294 294 294 294 295 295 296 295 295 296 296 296 295
299 299 298 297 298 297 297 295 295 296 297 297 297 297 298 297 297 296 296 296 295 294 296 293 293 294 295 297 298 298 298 297 297 296 295 294 293 293 293 293 293 293 293 293 293 293 293 293 294 296 296 295 295 295
298 298 298 298 297 296 296 296 295 296 296 297 297 297 298 299 298 296 295 294 293 291 291 291 293 294 294 295 296 296 295 296 295 295 295 295 294 294 293 293 294 293 293 292 293 293 293 294 295 295 294 294 294 294
297 297 297 296 295 295 294 294 296 294 298 297 297 298 297 298 296 296 294 292 291 289 290 292 293 294 294 294 295 296 296 296 295 294 294 293 293 292 293 292 292 292 292 291 292 292 292 292 292 292 292 292 291 290
297 296 294 293 294 294 293 294 293 293 294 295 296 295 295 295 296 295 294 292 289 289 290 292 294 294 294 294 293 293 293 294 294 293 292 293 292 290 290 289 288 288 289 289 289 289 289 288 288 288 288 287 287 287
293 288 290 289 291 294 294 295 295 293 294 292 294 295 294 295 293 293 293 289 288 287 289 290 292 292 291 291 291 292 293 293 292 290 289 289 288 288 288 288 288 287 287 287 287 287 287 287 286 286 286 286 286 286
288 286 289 290 290 291 292 292 292 292 292 292 294 295 294 292 289 290 289 287 286 285 287 288 289 289 289 290 290 291 290 291 292 291 289 289 288 288 287 287 287 286 286 286 286 286 286 286 286 286 286 286 286 286
287 288 287 288 290 292 292 292 293 293 294 294 295 291 288 286 288 289 287 285 285 285 286 288 289 289 287 288 289 290 290 291 290 289 288 288 288 287 287 286 285 285 285 285 286 286 286 286 286 285 285 285 285 285
286 287 284 288 289 291 291 291 292 292 292 289 289 284 285 288 288 285 285 285 285 286 287 287 288 288 288 287 286 286 286 286 286 286 286 286 286 285 285 285 285 285 285 285 285 285 285 285 284 284 284 284 283 283
286 286 286 281 286 287 287 289 289 287 285 288 288 286 285 283 283 284 285 285 286 286 286 287 287 288 288 288 288 287 286 285 286 286 285 285 285 284 284 284 284 284 284 284 284 283 283 283 283 283 282 282 282 282
286 287 286 284 283 286 286 285 285 285 284 284 283 283 283 283 283 284 285 285 286 286 286 286 287 287 286 286 285 285 285 285 285 285 285 284 283 283 283 283 283 283 282 282 282 282 282 282 282 282 281 281 281 281
287 288 287 287 285 285 285 285 285 284 285 285 285 284 284 283 284 284 285 285 285 285 285 285 286 286 286 285 284 284 284 283 283 282 282 282 282 282 282 282 282 282 282 282 282 282 282 281 281 281 281 280 280 280
287 288 286 283 286 286 287 287 286 286 286 286 285 285 285 284 283 284 284 284 285 285 285 285 285 284 284 284 284 283 283 282 282 282 282 282 282 282 282 282 282 282 281 281 281 281 281 281 281 280 280 280 280 279
287 287 287 287 286 287 286 286 286 286 286 286 285 285 284 285 283 283 284 284 285 285 285 285 285 284 284 283 282 282 282 282 282 281 281 281 281 281 281 281 281 281 281 281 280 280 280 280 279 279 279 279 279 278